Home   Weather   Almería   Past weeks

Flag for Spain Past Weather in Almería, Spain — Yesterday and Last 2 Weeks

Now
71 °F

Mild.


Feels Like: 77 °F
Forecast: 54 / 67 °F
Wind: 23 mph from East

Location: Almeria / Aeropuerto

Current Time: Feb 23, 2017 at 12:58:22 pm

Latest Report: Feb 23, 2017 at 12:00 pm


Visibility: N/A

Pressure: 29.88 "Hg

Humidity: 48%

Dew Point: 50 °F

Location of AlmeríaLocation

Past Weather in Almería — Graph

°F

Almería Temperature Yesterday

Maximum temperature yesterday: 72 °F (at 2:00 pm)
Minimum temperature yesterday: 60 °F (at 7:00 am)
Average temperature yesterday: 67 °F

High & Low Weather Summary for the Past Weeks

 TemperatureHumidityPressure
High72 °F (Feb 22, 2:00 pm)93% (Feb 14, 12:00 am)30.43 "Hg (Feb 14, 12:00 am)
Low46 °F (Feb 9, 8:00 am)13% (Feb 8, 1:00 pm)29.50 "Hg (Feb 12, 11:00 pm)
Average59 °F58%30.08 "Hg
* Reported Feb 8 11:00 am — Feb 23 11:00 am, Almería, Weather by CustomWeather, © 2017

Note: Actual official high and low records may vary slightly from our data, if they occured in-between our weather recording intervals... More about our weather records

Advertising

Almería Weather History for the Previous 24 Hours

Scroll right to see more
 ConditionsComfort  
Time TempWeatherWind HumidityBarometerVisibility
11:00 am
Thu, Feb 23
69 °FMild.21 mph48%29.88 "HgN/A
10:00 am69 °FMild.28 mph49%29.86 "HgN/A
9:00 am68 °FMild.24 mph48%29.86 "HgN/A
8:00 am68 °FMild.23 mph46%29.85 "HgN/A
7:00 am69 °FOvercast.26 mph43%29.83 "Hg28 mi
6:00 am69 °FMild.24 mph44%29.85 "HgN/A
5:00 am70 °FMild.20 mph43%29.85 "HgN/A
4:00 am70 °FMild.18 mph42%29.87 "HgN/A
3:00 am69 °FMild.14 mph40%29.90 "HgN/A
2:00 am69 °FMild.9 mph40%29.92 "HgN/A
1:00 am70 °FMild.10 mph39%29.93 "HgN/A
12:00 am70 °FMild.12 mph38%29.95 "HgN/A
11:00 pm
Wed, Feb 22
70 °FMild.21 mph37%29.94 "HgN/A
10:00 pm72 °FMild.21 mph33%29.93 "HgN/A
9:00 pm72 °FOvercast.22 mph32%29.92 "Hg28 mi
8:00 pm71 °FMild.7 mph33%29.93 "HgN/A
7:00 pm71 °FPassing clouds.7 mph33%29.93 "Hg6 mi
6:00 pm72 °FMild.10 mph32%29.93 "HgN/A
5:00 pm69 °FMild.18 mph35%29.95 "HgN/A
4:00 pm71 °FMild.18 mph33%29.95 "HgN/A
3:00 pm71 °FMild.16 mph34%29.97 "HgN/A
2:00 pm72 °FMild.14 mph33%30.01 "HgN/A
1:00 pm70 °FScattered clouds.15 mph35%30.04 "Hg7 mi
12:00 pm68 °FMild.15 mph34%30.07 "HgN/A
Weather by CustomWeather, © 2017

See weather overviewHow to use our weather pages